• In Hungary
  • List of Countries
  • For 7 days
  • Water Temperature
  • Satellite Maps
  • Weather Map
  • News
  • Weather Widgets
  • user-avatar
    Login

    Hourly Weather Vilenka

    Today, 15 October, Monday

    Time Temperature Precipitation Wind Pressure Humidity
    00:00 +11°C° 0 mm 4 mps 754 mmHg 91%
    01:00 +11°C° 0 mm 3 mps 754 mmHg 91%
    02:00 +11°C° 0 mm 3 mps 754 mmHg 91%
    03:00 +11°C° 0 mm 3 mps 754 mmHg 91%
    04:00 +10°C° 0 mm 3 mps 754 mmHg 91%
    05:00 +10°C° 0 mm 3 mps 754 mmHg 91%
    06:00 +10°C° 0 mm 3 mps 754 mmHg 91%
    07:00 +11°C° 0 mm 3 mps 754 mmHg 86%
    08:00 +11°C° 0 mm 3 mps 754 mmHg 82%
    09:00 +12°C° 0 mm 4 mps 755 mmHg 76%
    10:00 +13°C° 0 mm 4 mps 755 mmHg 71%
    11:00 +16°C° 0 mm 3 mps 755 mmHg 66%
    12:00 +17°C° 0 mm 3 mps 755 mmHg 61%
    13:00 +17°C° 0 mm 3 mps 755 mmHg 59%
    14:00 +18°C° 0 mm 3 mps 755 mmHg 58%
    15:00 +18°C° 0 mm 3 mps 755 mmHg 56%
    16:00 +17°C° 0 mm 3 mps 755 mmHg 62%
    17:00 +14°C° 0 mm 3 mps 755 mmHg 69%
    18:00 +13°C° 0 mm 3 mps 755 mmHg 75%
    19:00 +13°C° 0 mm 2 mps 755 mmHg 77%
    20:00 +13°C° 0 mm 2 mps 754 mmHg 80%
    21:00 +12°C° 0 mm 2 mps 754 mmHg 82%
    22:00 +12°C° 0 mm 2 mps 754 mmHg 83%
    23:00 +10°C° 0 mm 2 mps 754 mmHg 84%

    Tomorrow, 16 October, Tuesday

    Time Temperature Precipitation Wind Pressure Humidity
    00:00 +10°C° 0 mm 2 mps 755 mmHg 86%
    01:00 +10°C° 0 mm 2 mps 755 mmHg 86%
    02:00 +9°C° 0 mm 2 mps 755 mmHg 87%
    03:00 +9°C° 0 mm 3 mps 755 mmHg 88%
    04:00 +9°C° 0 mm 2 mps 754 mmHg 88%
    05:00 +8°C° 0 mm 2 mps 754 mmHg 89%
    06:00 +8°C° 0 mm 2 mps 754 mmHg 89%
    07:00 +9°C° 0 mm 3 mps 754 mmHg 84%
    08:00 +9°C° 0 mm 3 mps 754 mmHg 79%
    09:00 +10°C° 0 mm 3 mps 754 mmHg 74%
    10:00 +11°C° 0 mm 3 mps 754 mmHg 67%
    11:00 +13°C° 0 mm 3 mps 754 mmHg 61%
    12:00 +14°C° 0 mm 3 mps 754 mmHg 54%
    13:00 +16°C° 0 mm 3 mps 754 mmHg 52%
    14:00 +16°C° 0 mm 3 mps 754 mmHg 50%
    15:00 +17°C° 0 mm 4 mps 754 mmHg 48%
    16:00 +14°C° 0 mm 3 mps 753 mmHg 54%
    17:00 +13°C° 0 mm 3 mps 753 mmHg 59%
    18:00 +12°C° 0 mm 3 mps 753 mmHg 64%
    19:00 +11°C° 0 mm 3 mps 753 mmHg 65%
    20:00 +11°C° 0 mm 3 mps 753 mmHg 66%
    21:00 +10°C° 0 mm 3 mps 753 mmHg 67%
    22:00 +10°C° 0 mm 3 mps 753 mmHg 68%
    23:00 +10°C° 0 mm 3 mps 753 mmHg 68%

    Day after tomorrow, 17 October, Wednesday

    Time Temperature Precipitation Wind Pressure Humidity
    00:00 +9°C° 0 mm 3 mps 753 mmHg 69%
    01:00 +9°C° 0 mm 3 mps 753 mmHg 70%
    02:00 +9°C° 0 mm 3 mps 753 mmHg 71%
    03:00 +8°C° 0 mm 3 mps 753 mmHg 73%
    04:00 +8°C° 0 mm 3 mps 753 mmHg 74%
    05:00 +8°C° 0 mm 3 mps 753 mmHg 76%
    06:00 +7°C° 0 mm 3 mps 753 mmHg 78%
    07:00 +8°C° 0 mm 3 mps 753 mmHg 76%
    08:00 +9°C° 0 mm 3 mps 753 mmHg 74%
    09:00 +9°C° 0 mm 3 mps 753 mmHg 72%
    10:00 +11°C° 0 mm 3 mps 753 mmHg 67%
    11:00 +12°C° 0 mm 3 mps 753 mmHg 63%
    12:00 +13°C° 0 mm 3 mps 754 mmHg 59%
    13:00 +15°C° 0 mm 2 mps 754 mmHg 57%
    14:00 +15°C° 0 mm 2 mps 753 mmHg 56%
    15:00 +16°C° 0 mm 2 mps 753 mmHg 55%
    16:00 +15°C° 0 mm 2 mps 753 mmHg 61%
    17:00 +13°C° 0 mm 1 mps 753 mmHg 66%
    18:00 +12°C° 0 mm 1 mps 754 mmHg 72%
    19:00 +11°C° 0 mm 1 mps 754 mmHg 75%
    20:00 +11°C° 0 mm 1 mps 754 mmHg 77%
    21:00 +10°C° 0 mm 1 mps 754 mmHg 80%
    22:00 +10°C° 0 mm 1 mps 754 mmHg 82%
    23:00 +9°C° 0 mm 0 mps 754 mmHg 83%

    18 October, Thursday

    Time Temperature Precipitation Wind Pressure Humidity
    00:00 +8°C° 0 mm 0 mps 754 mmHg 85%
    01:00 +9°C° 0 mm 1 mps 754 mmHg 85%
    02:00 +9°C° 0 mm 1 mps 754 mmHg 86%
    03:00 +9°C° 0 mm 1 mps 754 mmHg 86%
    04:00 +9°C° 0 mm 1 mps 754 mmHg 87%
    05:00 +8°C° 0 mm 1 mps 754 mmHg 87%
    06:00 +8°C° 0 mm 1 mps 754 mmHg 87%
    07:00 +9°C° 0 mm 1 mps 754 mmHg 84%
    08:00 +10°C° 0 mm 1 mps 754 mmHg 81%
    09:00 +10°C° 0 mm 1 mps 754 mmHg 78%
    10:00 +12°C° 0 mm 2 mps 753 mmHg 72%
    11:00 +13°C° 0 mm 2 mps 753 mmHg 66%
    12:00 +15°C° 0 mm 2 mps 753 mmHg 60%
    13:00 +15°C° 0 mm 2 mps 753 mmHg 59%
    14:00 +16°C° 0 mm 2 mps 752 mmHg 59%
    15:00 +16°C° 0 mm 2 mps 752 mmHg 58%
    16:00 +15°C° 0 mm 2 mps 752 mmHg 64%
    17:00 +14°C° 0 mm 2 mps 752 mmHg 70%
    18:00 +13°C° 0 mm 2 mps 752 mmHg 76%
    19:00 +12°C° 0 mm 2 mps 751 mmHg 79%
    20:00 +12°C° 0 mm 2 mps 751 mmHg 82%
    21:00 +10°C° 0 mm 2 mps 751 mmHg 85%
    22:00 +10°C° 0 mm 2 mps 751 mmHg 86%
    23:00 +10°C° 0 mm 2 mps 751 mmHg 87%

    19 October, Friday

    Time Temperature Precipitation Wind Pressure Humidity
    00:00 +10°C° 0 mm 2 mps 751 mmHg 89%
    01:00 +10°C° 0 mm 2 mps 751 mmHg 89%
    02:00 +9°C° 0 mm 2 mps 751 mmHg 90%
    03:00 +9°C° 0 mm 2 mps 751 mmHg 90%
    04:00 +9°C° 0 mm 2 mps 751 mmHg 91%
    05:00 +9°C° 0 mm 2 mps 750 mmHg 91%
    06:00 +9°C° 0 mm 2 mps 750 mmHg 91%
    07:00 +10°C° 0 mm 3 mps 750 mmHg 89%
    08:00 +10°C° 0 mm 3 mps 750 mmHg 86%
    09:00 +11°C° 0 mm 3 mps 750 mmHg 84%
    10:00 +13°C° 0 mm 3 mps 750 mmHg 78%
    11:00 +14°C° 0 mm 3 mps 750 mmHg 73%
    12:00 +16°C° 0 mm 3 mps 750 mmHg 67%
    13:00 +17°C° 0 mm 3 mps 750 mmHg 66%
    14:00 +17°C° 0 mm 3 mps 749 mmHg 64%
    15:00 +18°C° 0 mm 3 mps 749 mmHg 63%
    16:00 +17°C° 0 mm 3 mps 749 mmHg 68%
    17:00 +16°C° 0 mm 2 mps 749 mmHg 72%
    18:00 +15°C° 0 mm 2 mps 748 mmHg 77%
    19:00 +14°C° 0 mm 2 mps 748 mmHg 78%
    20:00 +14°C° 0 mm 2 mps 748 mmHg 79%
    21:00 +14°C° 0 mm 2 mps 748 mmHg 80%
    22:00 +13°C° 0 mm 2 mps 748 mmHg 81%
    23:00 +13°C° 0 mm 2 mps 748 mmHg 82%

    20 October, Saturday

    Time Temperature Precipitation Wind Pressure Humidity
    00:00 +13°C° 0 mm 2 mps 748 mmHg 83%
    01:00 +12°C° 0 mm 2 mps 748 mmHg 84%
    02:00 +12°C° 0 mm 2 mps 748 mmHg 85%
    03:00 +12°C° 0 mm 1 mps 748 mmHg 86%
    04:00 +11°C° 0 mm 1 mps 747 mmHg 86%
    05:00 +11°C° 0 mm 1 mps 747 mmHg 87%
    06:00 +11°C° 0 mm 1 mps 747 mmHg 88%
    07:00 +11°C° 0 mm 1 mps 747 mmHg 85%
    08:00 +12°C° 0 mm 1 mps 747 mmHg 83%
    09:00 +12°C° 0 mm 1 mps 747 mmHg 80%
    10:00 +13°C° 0 mm 1 mps 747 mmHg 76%
    11:00 +14°C° 0 mm 1 mps 747 mmHg 71%
    12:00 +16°C° 0 mm 1 mps 747 mmHg 66%
    13:00 +16°C° 0 mm 1 mps 747 mmHg 64%
    14:00 +15°C° 0 mm 0 mps 746 mmHg 62%
    15:00 +16°C° 0 mm 0 mps 746 mmHg 61%
    16:00 +14°C° 0 mm 0 mps 746 mmHg 65%
    17:00 +13°C° 0 mm 0 mps 746 mmHg 70%
    18:00 +12°C° 0 mm 0 mps 746 mmHg 74%
    19:00 +12°C° 0 mm 0 mps 745 mmHg 76%
    20:00 +12°C° 0 mm 1 mps 745 mmHg 78%
    21:00 +12°C° 0 mm 1 mps 745 mmHg 80%
    22:00 +12°C° 0 mm 1 mps 745 mmHg 82%
    23:00 +11°C° 0 mm 1 mps 745 mmHg 84%
    Show more